WB7UVH Weather Reports


Display with metric or nautical units.
time (UTC)temp
F
wind
direction
speed
MPH
gust
MPH
rain 1hr
in
rain 24hr
in
rain mn
in
humidity
%
barometer
mb
20260906023004 60 13 0.0 0.0 0.00 0.03 0.02 89 1019.6
20260906021504 60 14 0.0 0.0 0.00 0.03 0.02 89 1019.6
20260906020004 61 13 0.0 0.0 0.00 0.03 0.02 89 1019.8
20260906014504 61 13 0.0 0.0 0.00 0.03 0.02 89 1019.8
20260906013003 62 13 0.0 0.0 0.00 0.03 0.02 88 1020.0
20260906011504 62 13 0.0 0.0 0.00 0.03 0.02 88 1020.0
20260906010004 63 13 0.0 0.0 0.00 0.03 0.02 87 1020.0
20260906004504 64 13 0.0 0.0 0.00 0.03 0.02 87 1020.0
20260906003004 65 13 0.0 0.0 0.01 0.03 0.02 86 1020.1
20260906001503 65 14 0.0 0.0 0.02 0.03 0.02 81 1020.3
20260905234504 67 13 0.0 0.0 0.02 0.03 0.02 79 1020.3
20260905233004 70 13 0.0 0.0 0.01 0.02 0.01 69 1020.4
20260905231504 71 73 0.0 0.0 0.00 0.01 0.00 58 1020.2
20260905230004 72 126 0.0 0.0 0.00 0.02 0.00 54 1020.3
20260905224504 72 125 0.0 0.0 0.00 0.03 0.00 54 1020.3
20260905223003 70 135 0.0 0.0 0.00 0.04 0.00 62 1020.3
20260905221504 71 136 0.0 0.0 0.00 0.04 0.00 56 1020.5
20260905220004 72 134 0.0 0.0 0.00 0.04 0.00 56 1020.2
20260905214503 72 134 0.0 0.0 0.00 0.06 0.00 59 1020.3
20260905213004 71 130 0.0 0.0 0.00 0.08 0.00 60 1020.4
20260905211504 72 65 0.0 0.0 0.00 0.08 0.00 58 1020.4
20260905210008 71 119 0.0 0.0 0.00 0.08 0.00 60 1020.3
20260905204503 70 34 0.0 0.0 0.00 0.08 0.00 62 1020.6
20260905200003 68 139 0.0 0.0 0.00 0.08 0.00 68 1020.9
20260905194503 65 143 0.0 0.0 0.00 0.08 0.00 77 1021.1
20260905193005 64 144 0.0 0.0 0.00 0.08 0.00 76 1021.3
20260905191504 63 156 0.0 0.0 0.00 0.08 0.00 82 1021.5
20260905190004 62 156 0.0 0.0 0.00 0.08 0.00 83 1021.7
20260905184503 62 156 0.0 0.0 0.00 0.08 0.00 83 1021.8
20260905183004 62 156 0.0 0.0 0.00 0.08 0.00 82 1022.0
20260905181504 62 156 0.0 0.0 0.00 0.08 0.00 81 1022.1
20260905180003 62 156 0.0 0.0 0.00 0.08 0.00 83 1022.2
20260905173004 63 157 0.0 0.0 0.00 0.08 0.00 82 1022.1
20260905161503 57 348 0.0 0.0 0.00 0.08 0.00 92 1022.5
20260905160004 57 271 0.0 0.0 0.00 0.08 0.00 94 1022.5
20260905154504 56 271 0.0 0.0 0.00 0.08 0.00 95 1022.5
20260905153004 56 272 0.0 0.0 0.00 0.08 0.00 96 1022.5
20260905151504 55 268 0.0 0.0 0.00 0.08 0.00 97 1022.5
20260905150005 55 268 0.0 0.0 0.00 0.08 0.00 97 1022.5
20260905144504 55 268 0.0 0.0 0.00 0.08 0.00 97 1022.4
20260905143004 55 268 0.0 0.0 0.00 0.08 0.00 96 1022.4
20260905141504 55 268 0.0 0.0 0.00 0.08 0.00 96 1022.3
20260905140004 55 266 0.0 0.0 0.00 0.09 0.00 96 1022.3
20260905133004 55 260 0.0 0.0 0.00 0.09 0.00 97 1022.1
20260905131503 54 260 0.0 0.0 0.00 0.09 0.00 97 1022.0
20260905130003 54 260 0.0 0.0 0.00 0.10 0.00 97 1021.9
20260905124503 54 260 0.0 0.0 0.00 0.11 0.00 96 1021.9
20260905123004 54 260 0.0 0.0 0.00 0.13 0.00 96 1021.9
20260905120004 54 260 0.0 0.0 0.00 0.14 0.00 96 1021.8
20260905114503 55 260 0.0 0.0 0.00 0.14 0.00 96 1021.7
20260905113004 55 260 0.0 0.0 0.00 0.14 0.00 97 1021.7
20260905111503 54 260 0.0 0.0 0.00 0.14 0.00 97 1021.7
20260905104504 54 260 0.0 0.0 0.00 0.14 0.00 97 1021.6
20260905103004 54 260 0.0 0.0 0.00 0.14 0.00 96 1021.7
20260905101505 54 260 0.0 0.0 0.00 0.14 0.00 96 1021.5
20260905100004 54 260 0.0 0.0 0.00 0.14 0.00 96 1021.5
20260905094503 54 260 0.0 0.0 0.00 0.14 0.00 96 1021.6
20260905093004 54 260 0.0 0.0 0.00 0.14 0.00 96 1021.5
20260905091505 54 260 0.0 0.0 0.00 0.14 0.00 96 1021.4
20260905090007 54 260 0.0 0.0 0.00 0.14 0.00 96 1021.3
20260905084504 54 260 0.0 0.0 0.00 0.14 0.00 96 1021.3
20260905083003 55 260 0.0 0.0 0.00 0.14 0.00 96 1021.3
20260905081504 55 260 0.0 0.0 0.00 0.14 0.00 96 1021.2
20260905074504 55 260 0.0 0.0 0.00 0.14 0.00 96 1021.1
20260905073004 55 260 0.0 0.0 0.00 0.15 0.00 96 1021.1
20260905071505 55 260 0.0 0.0 0.00 0.15 0.00 96 1020.7
20260905070004 55 260 0.0 0.0 0.00 0.15 0.00 96 1020.6
20260905064504 55 260 0.0 0.0 0.00 0.16 0.15 96 1020.7
20260905063003 55 260 0.0 0.0 0.01 0.16 0.15 96 1020.7
20260905061504 55 260 0.0 0.0 0.01 0.16 0.15 96 1020.6
20260905060004 55 260 0.0 0.0 0.01 0.16 0.15 96 1020.5
20260905054504 56 260 0.0 0.0 0.01 0.16 0.15 96 1020.6
20260905053004 56 260 0.0 0.0 0.00 0.15 0.14 96 1020.4
20260905051505 56 260 0.0 0.0 0.00 0.15 0.14 96 1020.3
20260905050004 56 260 0.0 0.0 0.00 0.15 0.14 96 1020.3
20260905044504 56 260 0.0 0.0 0.00 0.15 0.14 96 1020.2
20260905043003 56 260 0.0 0.0 0.00 0.15 0.14 96 1020.2
20260905040004 56 259 0.0 0.0 0.00 0.15 0.14 95 1020.0
20260905034504 56 259 0.0 0.0 0.00 0.15 0.14 96 1019.9
20260905033005 56 259 0.0 0.0 0.00 0.15 0.14 96 1019.8
20260905030004 56 259 0.0 0.0 0.00 0.15 0.14 95 1019.8